Cleveland, Oklahoma, United States (74020)
Lat: 36.31N, Lon: 96.46W
Wx Zone: OKZ059
Local Info
Past Weather Observations for Today

NOTE: This archive is for the closest National Weather Service station to Cleveland. Information may differ from the station used for current weather conditions.

Click here for Long-term Archive

Time Weather Temperature Dewpoint Humidity Pressure Winds Precip Visibility
22:55
Clear
77°F / 25°C 73°F / 23°C 89% 30.01 in
(1016 mb)
S 4.6 mph
(S 7 kph)
- 10SM
22:35
Clear
77°F / 25°C 73°F / 23°C 89% 30.01 in
(1016 mb)
SSE 4.6 mph
(SSE 7 kph)
- 10SM
22:15
Clear
77°F / 25°C 73°F / 23°C 89% 30.01 in
(1016 mb)
SSE 4.6 mph
(SSE 7 kph)
- 10SM
21:55
Clear
79°F / 26°C 73°F / 23°C 84% 30.01 in
(1016 mb)
S 3.5 mph
(S 6 kph)
- 10SM
21:35
Clear
79°F / 26°C 73°F / 23°C 84% 30.01 in
(1016 mb)
SSE 3.5 mph
(SSE 6 kph)
- 10SM
21:15
Clear
81°F / 27°C 73°F / 23°C 79% 30.01 in
(1016 mb)
SE 3.5 mph
(SE 6 kph)
- 10SM
20:55
Clear
81°F / 27°C 73°F / 23°C 79% 30.01 in
(1016 mb)
SSE 3.5 mph
(SSE 6 kph)
- 10SM
20:35
Clear
81°F / 27°C 73°F / 23°C 79% 29.98 in
(1015 mb)
SSE 3.5 mph
(SSE 6 kph)
- 10SM
20:15
Clear
82°F / 28°C 73°F / 23°C 74% 29.98 in
(1015 mb)
SSE 5.8 mph
(SSE 9 kph)
- 10SM
19:55
Clear
82°F / 28°C 73°F / 23°C 74% 29.98 in
(1015 mb)
SSE 4.6 mph
(SSE 7 kph)
- 10SM
19:35
Clear
84°F / 29°C 75°F / 24°C 74% 29.98 in
(1015 mb)
S 4.6 mph
(S 7 kph)
- 10SM
19:15
Clear
86°F / 30°C 75°F / 24°C 70% 29.98 in
(1015 mb)
S 4.6 mph
(S 7 kph)
- 10SM
18:55
Clear
88°F / 31°C 75°F / 24°C 66% 29.98 in
(1015 mb)
S 5.8 mph
(S 9 kph)
- 10SM
18:35
Partly Cloudy
90°F / 32°C 75°F / 24°C 63% 29.98 in
(1015 mb)
S 6.9 mph
(S 11 kph)
- 10SM
18:15
Clear
90°F / 32°C 75°F / 24°C 63% 29.98 in
(1015 mb)
SSE 4.6 mph
(SSE 7 kph)
- 10SM
17:55
Clear
91°F / 33°C 75°F / 24°C 59% 29.98 in
(1015 mb)
S 6.9 mph
(S 11 kph)
- 10SM
17:35
Clear
91°F / 33°C 73°F / 23°C 56% 29.98 in
(1015 mb)
SSE 6.9 mph
(SSE 11 kph)
- 10SM
17:15
Clear
91°F / 33°C 73°F / 23°C 56% 29.98 in
(1015 mb)
SE 5.8 mph
(SE 9 kph)
- 10SM
16:55
Clear
91°F / 33°C 75°F / 24°C 59% 29.98 in
(1015 mb)
SSE 6.9 mph
(SSE 11 kph)
- 10SM
16:35
Clear
93°F / 34°C 75°F / 24°C 56% 29.98 in
(1015 mb)
S 6.9 mph
(S 11 kph)
- 10SM
16:15
Clear
93°F / 34°C 75°F / 24°C 56% 30.01 in
(1016 mb)
S 6.9 mph
(S 11 kph)
- 10SM
15:55
Clear
93°F / 34°C 75°F / 24°C 56% 30.01 in
(1016 mb)
SSE 4.6 mph
(SSE 7 kph)
- 10SM
15:35
Clear
93°F / 34°C 75°F / 24°C 56% 30.01 in
(1016 mb)
S 5.8 mph
(S 9 kph)
- 10SM
15:15
Clear
93°F / 34°C 75°F / 24°C 56% 30.01 in
(1016 mb)
S 4.6 mph
(S 7 kph)
- 10SM
14:55
Clear
91°F / 33°C 75°F / 24°C 59% 30.01 in
(1016 mb)
SE 5.8 mph
(SE 9 kph)
- 10SM
14:35
Clear
91°F / 33°C 73°F / 23°C 56% 30.01 in
(1016 mb)
S 5.8 mph
(S 9 kph)
- 10SM
14:15
Clear
91°F / 33°C 73°F / 23°C 56% 30.04 in
(1017 mb)
SSE 8.1 mph
(SSE 13 kph)
- 10SM
13:55
Clear
91°F / 33°C 73°F / 23°C 56% 30.04 in
(1017 mb)
Calm - 10SM
13:35
Partly Cloudy
91°F / 33°C 73°F / 23°C 56% 30.04 in
(1017 mb)
SE 5.8 mph
(SE 9 kph)
- 10SM
13:15
Partly Cloudy
90°F / 32°C 73°F / 23°C 59% 30.06 in
(1018 mb)
S 5.8 mph
(S 9 kph)
- 10SM
12:55
Clear
90°F / 32°C 73°F / 23°C 59% 30.06 in
(1018 mb)
S 4.6 mph
(S 7 kph)
- 10SM
12:35
Clear
91°F / 33°C 73°F / 23°C 56% 30.06 in
(1018 mb)
SE 3.5 mph
(SE 6 kph)
- 10SM
12:15
Clear
90°F / 32°C 73°F / 23°C 59% 30.06 in
(1018 mb)
ESE 4.6 mph
(ESE 7 kph)
- 10SM
11:55
Clear
88°F / 31°C 73°F / 23°C 62% 30.06 in
(1018 mb)
Calm - 10SM
11:35
Clear
88°F / 31°C 73°F / 23°C 62% 30.06 in
(1018 mb)
S 5.8 mph
(S 9 kph)
- 10SM
11:15
Clear
88°F / 31°C 73°F / 23°C 62% 30.09 in
(1019 mb)
SE 3.5 mph
(SE 6 kph)
- 10SM
10:55
Clear
88°F / 31°C 73°F / 23°C 62% 30.09 in
(1019 mb)
Calm - 10SM
10:35
Clear
86°F / 30°C 73°F / 23°C 66% 30.09 in
(1019 mb)
SE 4.6 mph
(SE 7 kph)
- 10SM
10:15
Clear
84°F / 29°C 73°F / 23°C 70% 30.09 in
(1019 mb)
SE 5.8 mph
(SE 9 kph)
- 10SM
09:55
Clear
82°F / 28°C 73°F / 23°C 74% 30.09 in
(1019 mb)
Calm - 10SM
09:35
Clear
81°F / 27°C 73°F / 23°C 79% 30.09 in
(1019 mb)
E 3.5 mph
(E 6 kph)
- 10SM
09:15
Clear
81°F / 27°C 73°F / 23°C 79% 30.09 in
(1019 mb)
SE 3.5 mph
(SE 6 kph)
- 10SM
08:55
Clear
79°F / 26°C 73°F / 23°C 84% 30.09 in
(1019 mb)
SE 3.5 mph
(SE 6 kph)
- 10SM
07:35
Clear
73°F / 23°C 72°F / 22°C 94% 30.09 in
(1019 mb)
E 4.6 mph
(E 7 kph)
- 10SM
07:15
Clear
73°F / 23°C 72°F / 22°C 94% 30.09 in
(1019 mb)
ENE 3.5 mph
(ENE 6 kph)
- 10SM
06:55
Clear
72°F / 22°C 72°F / 22°C 100% 30.09 in
(1019 mb)
Calm - 10SM
06:35
Clear
70°F / 21°C 70°F / 21°C 100% 30.09 in
(1019 mb)
Calm - 10SM
06:15
Clear
68°F / 20°C 68°F / 20°C 100% 30.09 in
(1019 mb)
Calm - 7SM
05:55
Partly Cloudy
66°F / 19°C 66°F / 19°C 100% 30.06 in
(1018 mb)
Calm - 7SM
05:35
Partly Cloudy
68°F / 20°C 68°F / 20°C 100% 30.06 in
(1018 mb)
Calm - 7SM
05:15
Clear
66°F / 19°C 66°F / 19°C 100% 30.06 in
(1018 mb)
Calm - 7SM
04:55
Clear
66°F / 19°C 66°F / 19°C 100% 30.06 in
(1018 mb)
Calm - 7SM
04:35
Clear
66°F / 19°C 64°F / 18°C 94% 30.06 in
(1018 mb)
Calm - 7SM
04:15
Clear
68°F / 20°C 68°F / 20°C 100% 30.06 in
(1018 mb)
Calm - 7SM
03:55
Clear
68°F / 20°C 68°F / 20°C 100% 30.06 in
(1018 mb)
Calm - 7SM
03:35
Clear
68°F / 20°C 68°F / 20°C 100% 30.06 in
(1018 mb)
Calm - 7SM
03:15
Clear
68°F / 20°C 68°F / 20°C 100% 30.06 in
(1018 mb)
Calm - 7SM
02:55
Clear
68°F / 20°C 68°F / 20°C 100% 30.06 in
(1018 mb)
Calm - 7SM
02:35
Clear
68°F / 20°C 68°F / 20°C 100% 30.06 in
(1018 mb)
Calm - 10SM
02:15
Clear
68°F / 20°C 68°F / 20°C 100% 30.06 in
(1018 mb)
Calm - 10SM
01:55
Clear
68°F / 20°C 68°F / 20°C 100% 30.06 in
(1018 mb)
Calm - 7SM
01:35
Clear
68°F / 20°C 68°F / 20°C 100% 30.06 in
(1018 mb)
Calm - 10SM
01:15
Clear
Fog And Mist
68°F / 20°C 68°F / 20°C 100% 30.06 in
(1018 mb)
Calm - 5SM
00:55
Clear
70°F / 21°C 70°F / 21°C 100% 30.06 in
(1018 mb)
Calm - 10SM
00:35
Clear
70°F / 21°C 70°F / 21°C 100% 30.09 in
(1019 mb)
Calm - 10SM
00:15
Clear
70°F / 21°C 70°F / 21°C 100% 30.09 in
(1019 mb)
Calm - 10SM
Time Weather Temperature Dewpoint Humidity Pressure Winds Precip Visibility


Weather for websites

WeatherForYou.com, LLC is not responsible for any damages or problems caused by this service. Current weather conditions are obtained from the closest station including government and personal stations which may have varying degrees of accuracy. Weather forecasts are derived from the NOAA NDFD. Like all things, this site belongs to Jesus Christ... He just trusts me to maintain it. If you have any questions or comments email webmaster@weatherforyou.com

Copyright © 2014, WeatherForYou.com LLC. All rights reserved.